Flag for U.S.A. Weather past 2 weeks in Worcester, Massachusetts, U.S.A.

44 °F

Light rain. More clouds than sun.

Feels Like: 39 °F
Forecast: 41 / 53 °F
Wind: 9 mph from Northeast

Location: Worcester Regional Airport

Current Time: Nov 28, 2015 at 12:14:17 PM

Latest Report: Nov 28, 2015 at 11:54 AM

Visibility: 2 mi

Pressure: 30.15 "Hg

Humidity: 93%

Dew point: 42 °F

Location of WorcesterLocation

Historic Weather in Worcester — Graph


Worcester temperature yesterday

Maximum temperature yesterday: 61 °F (at 12:54 PM)
Minimum temperature yesterday: 47 °F (at 12:54 AM)
Average temperature yesterday: 53 °F

Past Weeks' High & Low Weather Summary

High61 °F (Nov 27, 12:54 PM)97% (Nov 20, 2:02 AM)30.86 "Hg (Nov 20, 2:02 AM)
Low23 °F (Nov 24, 3:54 AM)21% (Nov 16, 4:54 PM)29.50 "Hg (Nov 13, 12:54 PM)
Average41 °F63%30.25 "Hg
* Reported Nov 13 11:54 AM — Nov 28 11:02 AM, Worcester, Weather by CustomWeather, © 2015

Note: Actual official high and low records may vary slightly from our data, if they occured in-between our weather recording intervals... More about our weather records


Worcester weather history for previous 24 hours

Time TempWeatherWind HumidityBarometerVisibility
11:02 AM
Sat, Nov 28
47 °FRain. Fog.9 mph97%30.15 "Hg2 mi
10:54 AM48 °FRain. Fog.7 mph93%30.16 "Hg4 mi
9:54 AM51 °FLight rain. Overcast.3 mph86%30.16 "Hg10 mi
8:54 AM51 °FLight rain. Overcast.6 mph83%30.16 "Hg10 mi
7:54 AM52 °FLight rain. Overcast.7 mph77%30.15 "Hg10 mi
6:54 AM52 °FPartly sunny.7 mph75%30.13 "Hg10 mi
5:54 AM53 °FPassing clouds.12 mph72%30.13 "Hg10 mi
4:54 AM52 °FClear.8 mph75%30.13 "Hg10 mi
3:54 AM53 °FPassing clouds.9 mph72%30.12 "Hg10 mi
2:54 AM52 °FPassing clouds.10 mph75%30.12 "Hg10 mi
1:54 AM53 °FPassing clouds.13 mph72%30.14 "Hg10 mi
12:54 AM53 °FPassing clouds.15 mph72%30.13 "Hg10 mi
11:54 PM
Fri, Nov 27
53 °FClear.18 mph69%30.15 "Hg10 mi
10:54 PM54 °FClear.20 mph69%30.16 "Hg10 mi
9:54 PM55 °FClear.18 mph67%30.18 "Hg10 mi
8:54 PM54 °FClear.17 mph67%30.19 "Hg10 mi
7:54 PM54 °FClear.21 mph67%30.22 "Hg10 mi
6:54 PM54 °FClear.16 mph72%30.21 "Hg10 mi
5:54 PM54 °FClear.17 mph72%30.22 "Hg10 mi
4:54 PM56 °FClear.18 mph67%30.25 "Hg10 mi
3:54 PM58 °FSunny.14 mph62%30.28 "Hg10 mi
2:54 PM59 °FSunny.20 mph62%30.30 "Hg10 mi
1:54 PM59 °FSunny.20 mph62%30.31 "Hg10 mi
12:54 PM61 °FSunny.21 mph56%30.35 "Hg10 mi
Weather by CustomWeather, © 2015

See weather overviewHow to use our weather pages